COSMOS 2198

Satellite information

Favourite Embed

Satellite Type and Status

PAYLOADIN ORBIT

Key statistics

Satellite COSMOS 2198 at a glance.

Uptime

12049

Days in orbit

Revolutions

≈ 12.6

Per day

Orbit

LEO

Low Earth Orbit

Inclination

82.6

Latest

Satellite identification and parameters

Extended collection of information and parameters for COSMOS 2198.

Object identification

Identified? True

Debris? False

Object name: COSMOS 2198

International designator: 1992-042B

Object number (NORAD): 22035

Object ID (CCSDS): 22035

Country: COMMONWEALTH OF INDEPENDENT STATES (CIS)

Current information (Y/N): Y

RCS size: LARGE

Orbital parameters

Period: 114.045 minutes

Inclination: 82.5978 deg

SMA: 7790.112 km

Apoapsis: 1417.504 km

Periapsis: 1406.45 km

RAAN: 113.1851 deg

Eccentricy: 0.0007095

Argument of periapsis: 22.7346 deg

Mean anomaly: 337.4058 deg

Mean motion: 12.62662258 rev/day

Mean motion (dot): 0.00000007 rev/day2

B* drag term: -0.000018772 1/REarth

Two-line elements (TLE)

Creation date: July 9, 2025, 2:22 a.m.

Reference frame: TEME

Reference center: EARTH

Epoch: July 8, 2025, 8:15 p.m. UTC

TLE line 0: 0 COSMOS 2198

TLE line 1: 1 22035U 92042B 25189.84422503 .00000007 00000-0 -18772-4 0 9999

TLE line 2: 2 22035 82.5978 113.1851 0007095 22.7346 337.4058 12.62662258520083

Live tracking on map

Real-time ground track for satellite COSMOS 2198.

In-orbit conjunctions

A list of the most updated potential collisions computed for object COSMOS 2198.

Target Orbit TCA Probability of collision Miss distance Type
COSMOS 1294 LEO 2024-12-10 13:44:03 0.0006367989 58.0 (m) PAYLOAD

Associated space launch

Second generation store-dump military communications satellite

COSMOS 2198 was lifted into orbit during the mission ‘Tsiklon-3 | Strela-3 79 to 82’, on board a Tsiklon-3 space rocket.

The launch took place on July 13, 1992, 5:41 p.m. from 32/1.

For more information about the launch, click the button.

Launch to space Tsiklon-3 | Strela-3 79 to 82
Tsiklon-3 | Strela-3 79 to 82

Agency: N/A

Status: Launch Successful

Launch date: July 13, 1992, 5:41 p.m. UTC

Rocket: Tsiklon-3

Launch pad: 32/1

Location: Plesetsk Cosmodrome, Russian Federation

...

Latest news about this satellite

There are no fresh news available about this satellite. Check back as we update our databases every day.


Newsletter sign-up

Weekly statistics, charts and insights to help you stay on top of the space industry.